Regional Weather Roundup
Issued by NWS

Home | Current Version | Previous Version | Text Only | Print | Product List | Glossary Off
Versions: 1 2 3 4 5 6 7 8 9 10 11 12 13 14 15 16 17 18 19 20 21 22 23 24 25 26 27 28 29 30 31 32 33 34 35 36 37 38 39 40 41 42 43 44 45 46 47 48 49 50

184
ASUS45 KCYS 240210
RWRWY

WYOMING REGIONAL WEATHER ROUNDUP
NATIONAL WEATHER SERVICE CHEYENNE WY
700 PM MST MON JAN 23 2017

NOTE:  "FAIR" INDICATES FEW OR NO CLOUDS BELOW 12,000 FEET
WITH NO SIGNIFICANT WEATHER AND/OR OBSTRUCTIONS TO VISIBILITY.

WYZ001-240300-
YELLOWSTONE NATIONAL PARK

CITY           SKY/WX    TMP DP  RH WIND       PRES   REMARKS
LK YELLOWSTONE   N/A     21  14  74 VRB5      29.47R WCI  15
W YELLOWSTONE  NOT AVBL

$$
WYZ002>013-054>058-071-098>099-240300-
NORTHERN WYOMING

CITY           SKY/WX    TMP DP  RH WIND       PRES   REMARKS
JACKSON        NOT AVBL
CODY           CLOUDY    22  18  85 N10G17    29.63R WCI  11
GREYBULL       CLOUDY    22  17  81 NW12      29.62R WCI  10
WORLAND        CLOUDY    26  22  84 N8        29.61S WCI  18
SHERIDAN       CLOUDY    19  16  88 NW13      29.72R WCI   6
BUFFALO        MOCLDY    19  15  84 N14G23    29.65R WCI   6
GILLETTE       CLOUDY    20  17  88 N9        29.65R WCI   9
HULETT         SNOW      19  18  93 MISG      29.67S VSB<1/4
NEWCASTLE      FAIR      27  23  86 SE7       29.60S WCI  19

$$
WYZ014>020-022>026-101>103-240300-
CENTRAL WYOMING

CITY           SKY/WX    TMP DP  RH WIND       PRES   REMARKS
BIG PINEY      CLOUDY    20  18  92 CALM      29.44R
PINEDALE       CLOUDY    21  21 100 E3        29.43S
DUBOIS         NOT AVBL
LANDER         LGT SNOW  25  23  92 NW9       29.52S VSB 3/4 WCI  15
RIVERTON       LGT SNOW  24  22  91 N8        29.53S VSB 1   WCI  15
CASPER         CLOUDY    27  22  81 NE18      29.53S WCI  14
DOUGLAS        CLOUDY    32  24  72 E9        29.57S WCI  24

$$
WYZ021-027>030-104>119-240300-
SOUTHERN WYOMING

CITY           SKY/WX    TMP DP  RH WIND       PRES   REMARKS
EVANSTON       LGT SNOW  22  19  89 SW22      29.46R FOG     WCI   6
ROCK SPRINGS   LGT SNOW  25  23  92 W18       29.45R VSB 3/4 WCI  11
RAWLINS        CLOUDY    29  24  82 SW6G17    29.46F WCI  23
LARAMIE        CLOUDY    29  23  78 SE8       29.48S WCI  21
CHEYENNE       LGT SNOW  32  30  92 E9        29.54S VSB 1   WCI  24
TORRINGTON     MOCLDY    35  28  75 NE8       29.56F WCI  29

$$




USA.gov is the U.S. government's official web portal to all federal, state and local government web resources and services.